Vancouver, WA
on Saturday, February 16, 2013

Saturday
Previous Day Next Day
Daily Summary
 ActualAverageRecord
Temperature
Mean Temperature °F 43°F  
Max Temperature 51°F 52°F 62°F (2010)
Min Temperature 35°F 35°F 17°F (1956)
Degree Days
Heating Degree Days 22    
Month to date heating degree days 344  
Since 1 July heating degree days 2767  
Cooling Degree Days 0    
Month to date cooling degree days 0  
Year to date cooling degree days 0  
Moisture
Dew Point 39°F   
Average Humidity 79    
Maximum Humidity 96    
Minimum Humidity 61    
Precipitation
Precipitation 0.03 in 0.11 in 1.80 in (1970)
Month to date precipitation 0.23 2.51  
Year to date precipitation 3.63 8.01  
Snow
Snow 0.00 in in in ()
Month to date snowfall 0.0  
Snow Depth 0.00 in   
Wind
Wind Speed 4 mph   
Max Wind Speed 12 mph   
Max Gust Speed 17 mph   
Visibility 9 miles   
Events Rain   

Key: T is trace of precipitation, MM is missing value
Source: NWS Daily Summary
Time(PST)TemperatureDew PointHumidity Pressure Visibility Wind DirectionWind SpeedGust SpeedPrecipitationEvents Conditions
12:53 AM 45.0°F 39.0°F 80% 30.24 in 10.0 miles ESE 4.6 mph - N/A   Clear
1:53 AM 44.1°F 39.0°F 82% 30.23 in 10.0 miles ESE 5.8 mph - N/A   Clear
2:53 AM 44.1°F 37.9°F 79% 30.22 in 10.0 miles ESE 9.2 mph - N/A   Clear
3:53 AM 42.1°F 37.9°F 85% 30.22 in 10.0 miles ESE 4.6 mph - N/A   Clear
4:41 AM 41.0°F 37.4°F 87% 30.23 in 10.0 miles Calm Calm - N/A   Mostly Cloudy
4:53 AM 42.1°F 37.9°F 85% 30.23 in 10.0 miles Calm Calm - N/A   Overcast
5:05 AM 42.8°F 39.2°F 87% 30.23 in 10.0 miles Calm Calm - N/A   Overcast
5:53 AM 43.0°F 39.9°F 89% 30.25 in 10.0 miles Calm Calm - N/A   Overcast
6:53 AM 43.0°F 39.9°F 89% 30.26 in 7.0 miles ESE 4.6 mph - N/A   Overcast
7:53 AM 43.0°F 41.0°F 93% 30.26 in 3.0 miles ESE 5.8 mph - N/A   Overcast
8:53 AM 44.1°F 41.0°F 89% 30.27 in 6.0 miles ESE 5.8 mph - N/A   Overcast
9:32 AM 44.6°F 42.8°F 93% 30.27 in 8.0 miles ESE 4.6 mph - 0.00 in   Overcast
9:53 AM 45.0°F 42.1°F 90% 30.28 in 9.0 miles ESE 3.5 mph - 0.00 in   Overcast
10:53 AM 46.0°F 42.1°F 86% 30.27 in 10.0 miles ESE 4.6 mph - N/A   Overcast
11:53 AM 48.0°F 42.1°F 80% 30.27 in 10.0 miles Calm Calm - 0.00 in Rain Light Rain
12:22 PM 48.2°F 42.8°F 82% 30.26 in 10.0 miles WSW 3.5 mph - 0.01 in Rain Light Rain
12:53 PM 48.9°F 44.1°F 83% 30.25 in 10.0 miles Calm Calm - 0.01 in   Overcast
1:39 PM 50.0°F 42.8°F 76% 30.24 in 9.0 miles NNW 6.9 mph - 0.00 in Rain Light Rain
1:53 PM 46.9°F 42.1°F 83% 30.24 in 10.0 miles NNW 5.8 mph - 0.01 in Rain Light Rain
2:04 PM 48.2°F 42.8°F 82% 30.23 in 10.0 miles NNW 4.6 mph - 0.00 in Rain Light Rain
2:53 PM 50.0°F 43.0°F 77% 30.23 in 10.0 miles Variable 3.5 mph - 0.01 in   Mostly Cloudy
3:53 PM 51.1°F 39.0°F 63% 30.24 in 10.0 miles NW 6.9 mph - N/A   Overcast
4:53 PM 50.0°F 37.9°F 63% 30.24 in 10.0 miles NW 8.1 mph - N/A   Partly Cloudy
5:53 PM 48.0°F 36.0°F 63% 30.25 in 10.0 miles NW 6.9 mph - N/A   Partly Cloudy
6:53 PM 45.0°F 36.0°F 71% 30.26 in 10.0 miles NW 8.1 mph - N/A   Clear
7:53 PM 44.1°F 36.0°F 73% 30.27 in 10.0 miles Calm Calm - N/A   Clear
8:53 PM 39.9°F 35.1°F 83% 30.27 in 10.0 miles Calm Calm - N/A   Overcast
9:53 PM 37.9°F 35.1°F 89% 30.28 in 10.0 miles Calm Calm - N/A   Overcast
10:53 PM 39.9°F 34.0°F 79% 30.29 in 10.0 miles Calm Calm - N/A   Scattered Clouds
11:53 PM 37.9°F 34.0°F 86% 30.29 in 10.0 miles Calm Calm - N/A   Mostly Cloudy
Moon Phase
Feb. 16 Feb. 17 Feb. 25 Mar. 04 Mar. 11
Sunrise:07:10 AM (PST) Moon Rise:10:04 AM (PST)2/16
Sunset:05:39 PM (PST) Moon Set:12:05 AM (PST)2/16

Copyright © 2014 The Weather Underground, Inc.